Theta_e
295 295 295 294 295 294 295 296 297 298 300 301 305 306 308 311 312 316 319 319 318 315 309 306 305 300 298 296 293 291 291 290 289 288 287 288 289 289 289 291 291 291 291
292 293 293 293 293 293 293 294 295 296 298 300 300 303 302 302 306 310 311 315 315 314 309 304 302 298 295 293 292 291 289 290 289 287 285 283 285 287 289 289 290 288 289
291 291 292 291 292 291 292 293 294 294 295 297 299 299 300 299 298 301 304 308 311 310 309 305 302 299 298 295 293 291 291 289 289 288 288 283 283 283 286 287 288 288 287
291 291 290 290 290 290 291 292 293 293 294 294 294 293 293 293 294 295 296 299 303 304 307 305 303 299 297 295 292 292 291 289 287 287 290 288 287 283 282 285 286 286 287
289 289 289 290 290 289 288 289 290 291 292 292 292 291 291 292 292 293 293 294 297 299 300 301 302 300 298 295 293 292 291 289 289 288 286 286 286 286 283 281 282 284 285
288 288 289 289 288 288 287 288 288 289 290 291 290 290 289 289 289 289 290 291 292 294 296 297 297 297 298 295 294 293 292 292 290 288 287 287 287 285 285 282 281 281 283
286 287 286 286 287 286 286 287 286 286 288 288 288 288 288 288 288 288 288 288 288 289 290 291 292 293 294 294 292 291 291 290 291 291 290 290 288 287 287 285 281 281 282
287 286 286 286 286 285 285 285 285 284 286 286 286 286 286 286 286 286 287 287 287 288 289 288 288 289 291 292 291 289 288 288 288 290 290 291 290 288 287 286 283 280 280
286 286 286 286 286 285 285 284 283 283 284 284 285 284 285 285 285 285 285 285 286 287 287 287 287 287 287 288 289 287 286 286 287 288 288 289 291 289 288 286 285 287 282
287 287 285 286 285 285 284 284 284 283 283 284 284 284 284 284 283 283 283 283 284 285 285 285 285 285 286 286 286 285 285 285 285 286 286 287 289 288 287 289 286 284 288
285 286 284 284 284 284 284 285 285 284 283 283 283 283 283 283 282 282 282 281 282 283 283 283 283 283 283 284 284 284 284 284 285 285 285 285 286 288 288 285 286 286 283
283 284 285 283 283 283 283 282 282 283 283 283 283 284 284 283 282 280 281 280 280 281 282 282 281 281 281 282 282 282 283 283 283 284 284 285 286 284 286 286 287 287 284
281 282 283 283 282 282 282 281 282 282 283 281 281 281 281 280 280 280 281 281 279 278 280 280 280 280 281 281 281 281 282 283 283 284 284 284 284 284 285 286 286 287 287
281 281 280 281 281 281 280 280 280 281 282 280 280 279 278 279 279 280 279 279 279 278 278 280 279 280 279 280 280 281 281 281 282 283 284 284 284 284 285 285 285 285 285
281 280 280 280 280 280 281 281 280 281 280 280 279 279 279 279 278 278 278 278 278 278 278 278 278 278 279 279 279 280 281 281 281 282 282 283 284 286 287 285 285 285 284
280 280 280 280 280 281 281 281 281 280 280 279 278 279 278 279 279 279 279 278 278 277 277 276 276 276 277 281 282 282 280 281 281 281 282 282 282 284 288 289 290 289 285
280 279 280 280 279 280 281 280 280 279 276 275 276 277 278 278 278 278 278 277 277 277 276 276 275 275 276 280 281 281 280 279 280 280 281 282 283 282 282 285 288 289 291
280 279 279 279 280 281 280 279 278 277 277 275 274 274 276 275 275 275 275 275 275 275 275 275 275 275 275 279 279 279 278 277 278 279 280 280 281 282 282 282 282 283 284
280 279 280 281 279 278 277 277 276 276 275 275 274 274 272 271 271 270 270 271 271 271 272 273 272 272 273 277 278 277 275 274 275 276 277 278 279 283 285 282 281 281 282
280 280 280 279 277 276 276 274 274 272 272 273 272 271 270 267 266 267 266 267 267 268 269 268 269 269 269 273 274 274 272 271 272 273 275 278 279 282 283 281 281 280 281
279 278 277 277 275 274 273 271 271 269 270 269 268 267 266 265 264 264 264 264 263 264 263 264 265 265 267 267 272 273 271 271 271 272 273 275 279 281 282 284 282 282 283
277 277 275 275 274 272 270 269 268 269 267 265 264 263 262 262 263 261 261 261 261 260 261 261 262 264 265 268 269 271 272 273 269 270 272 274 278 280 281 282 284 287 287
277 274 270 270 271 268 267 265 266 265 264 259 258 259 261 261 261 260 260 260 260 260 260 261 261 261 264 264 268 270 271 271 269 269 271 274 275 278 279 281 285 284 283
271 269 267 265 264 265 266 263 263 263 255 254 258 260 260 260 260 261 261 260 259 259 260 260 260 261 263 264 265 266 265 268 268 269 268 270 272 275 276 277 281 282 282
269 267 265 264 264 264 262 259 262 257 257 258 260 260 260 259 259 260 260 260 262 263 262 264 265 265 265 266 271 272 271 270 271 269 267 267 269 270 271 276 277 277 279
268 266 264 263 261 258 258 257 256 254 255 258 260 259 260 259 260 259 259 265 267 268 270 271 270 268 271 273 273 274 275 275 275 271 269 268 268 268 269 271 274 275 276
Wind_Speed
9 12 14 14 15 16 16 16 15 14 10 5 4 3 2 2 2 1 4 6 6 7 6 4 6 5 7 7 6 4 5 2 3 4 2 2 2 4 4 4 4 5 4
11 14 15 16 15 14 14 16 15 15 11 7 4 3 3 2 3 4 5 2 4 6 6 6 5 6 5 6 7 5 3 3 6 4 2 2 4 3 4 4 4 6 5
12 13 15 13 12 15 15 15 14 14 13 12 8 5 4 4 5 5 4 5 3 3 5 5 5 5 6 7 8 7 8 5 6 6 6 2 6 2 1 5 5 6 4
12 12 11 12 12 12 12 14 15 16 14 15 11 11 6 5 3 3 4 6 7 6 3 0 3 5 4 5 6 6 6 6 6 2 6 1 4 4 2 2 4 5 7
11 10 9 10 9 8 10 11 13 15 15 16 14 9 10 5 5 7 9 9 7 8 6 4 3 2 3 5 6 5 6 4 5 5 2 2 2 1 3 4 4 2 4
8 8 7 6 7 7 7 10 13 14 14 13 14 14 13 11 10 10 9 8 6 7 9 9 4 3 3 4 5 7 7 9 6 4 5 5 5 5 4 3 4 4 4
7 7 8 7 8 10 10 10 11 12 11 11 13 13 12 12 11 10 7 8 7 6 9 10 8 5 4 4 4 5 6 7 9 11 8 8 6 4 4 3 3 4 4
6 7 7 6 7 8 9 9 10 10 9 9 9 8 8 6 6 7 6 7 6 6 9 9 8 8 7 6 4 3 4 5 7 11 8 8 9 5 5 5 6 1 3
6 6 6 6 6 7 7 8 7 8 9 8 6 7 7 8 7 8 6 6 7 8 9 8 9 9 7 7 7 4 5 5 6 7 9 9 8 6 6 4 5 8 8
6 6 6 6 5 5 5 8 7 7 8 8 6 5 6 7 7 5 6 7 7 9 9 9 8 9 9 7 6 5 6 6 5 5 7 9 8 7 5 8 5 5 12
7 6 6 6 6 4 5 5 4 4 4 5 5 6 6 7 7 8 7 6 5 6 8 8 7 7 8 7 7 7 7 7 7 7 7 9 8 9 8 4 6 8 5
6 5 6 6 5 5 4 4 3 1 1 2 4 4 4 6 5 5 7 6 7 7 9 10 9 6 6 7 6 7 7 7 8 8 7 9 7 8 10 7 11 10 6
6 5 5 6 6 6 5 5 4 5 5 3 2 3 4 5 5 6 6 6 7 7 9 8 9 10 10 10 8 6 8 9 9 9 9 10 8 10 9 10 11 10 9
8 7 7 7 7 6 5 4 2 1 1 1 2 4 4 5 6 7 7 7 7 7 8 8 9 9 10 10 11 10 9 9 9 10 10 10 10 12 11 9 12 11 9
7 7 7 7 6 5 5 5 5 3 2 3 4 6 5 5 6 7 7 7 7 8 8 10 10 10 10 8 9 10 10 11 12 11 10 11 13 17 16 9 11 10 11
5 3 7 8 7 7 7 6 5 4 2 4 5 5 6 9 11 12 12 10 10 9 10 11 12 13 10 20 23 21 13 13 14 14 13 11 12 16 23 25 25 19 12
4 4 5 7 5 5 4 2 1 1 2 3 5 7 8 11 11 11 12 14 15 16 16 15 14 15 15 25 27 27 15 15 15 16 15 14 11 12 12 19 24 25 28
6 5 4 2 1 3 4 3 3 3 4 5 5 5 7 7 9 11 13 15 15 16 16 17 17 17 17 30 29 29 18 16 18 18 18 18 18 16 14 14 14 16 16
6 5 4 2 5 6 5 4 3 3 3 5 6 4 5 9 12 14 15 15 15 16 17 17 19 18 20 30 31 27 17 18 21 19 20 19 20 25 29 18 17 16 17
6 4 5 5 6 4 4 3 2 2 4 3 6 9 10 9 12 14 15 14 14 17 15 18 18 21 23 29 33 29 15 18 15 19 21 29 28 34 33 21 18 17 19
5 6 6 6 5 4 4 4 2 3 2 5 8 8 9 11 12 13 12 14 15 16 16 17 16 18 18 20 30 31 17 14 15 15 15 14 30 34 34 32 19 21 18
6 6 5 4 3 4 4 1 3 4 5 5 7 9 10 9 10 12 13 13 13 15 15 16 14 12 14 21 24 28 29 28 18 18 15 17 32 35 36 30 32 32 28
5 4 5 3 2 2 2 2 3 5 5 4 6 8 9 9 9 11 12 11 12 12 12 12 13 12 12 12 27 30 30 29 20 15 24 38 38 35 32 38 36 28 15
5 4 4 2 1 1 0 4 5 4 3 5 8 9 9 11 9 8 10 10 11 11 11 12 14 14 13 12 11 12 14 24 22 25 19 22 28 33 30 25 22 14 13
4 3 3 2 2 1 2 4 5 3 5 6 9 9 8 9 10 10 11 11 13 14 14 13 13 14 14 13 25 24 15 13 16 18 14 13 13 12 13 13 9 7 9
3 1 1 1 3 3 3 5 6 3 4 8 8 8 8 8 9 10 11 22 26 29 30 32 26 14 28 34 34 34 34 33 33 16 13 13 12 13 12 12 10 9 11
Wind_Direction
60 46 37 31 24 23 21 20 25 16 21 8 26 31 28 359 360 191 165 160 170 161 162 175 166 159 174 179 173 139 169 186 155 101 358 320 256 223 209 198 188 185 177
59 47 39 29 22 24 21 21 22 22 24 24 360 41 44 34 2 356 17 82 165 172 162 166 184 168 149 164 171 159 142 175 183 148 109 234 309 270 229 219 210 207 183
65 49 41 32 30 26 22 27 26 26 25 18 24 21 23 28 18 358 357 4 45 168 167 168 162 173 184 191 189 176 169 191 213 222 150 124 225 148 207 227 210 200 217
71 63 50 41 35 29 28 28 27 29 27 25 34 38 41 48 6 9 359 353 2 12 9 200 195 176 183 191 201 197 185 143 194 271 244 250 146 182 245 277 227 211 209
75 65 54 47 37 32 31 26 34 36 28 27 30 33 37 21 5 17 19 1 350 352 348 352 352 251 197 208 198 190 209 191 173 196 170 181 240 135 135 221 256 261 214
77 75 62 54 43 29 38 39 38 33 28 32 31 32 34 25 27 18 14 2 352 0 351 324 308 302 288 227 213 213 208 217 225 204 193 181 177 199 182 175 216 213 242
74 67 57 40 39 36 35 40 37 35 26 35 36 30 24 28 30 20 16 8 359 351 357 345 333 312 283 255 238 232 222 216 223 228 227 231 220 169 185 149 199 210 232
74 73 69 62 57 43 41 37 27 29 26 24 27 29 31 34 29 25 8 2 2 350 342 345 331 342 340 311 266 232 239 236 228 233 233 240 237 208 188 183 154 235 258
112 110 88 71 67 66 53 50 36 22 26 28 23 16 14 34 28 16 23 5 346 347 346 344 342 338 345 341 323 285 264 252 241 239 238 239 245 241 230 201 181 219 242
128 130 119 110 84 87 86 74 46 26 11 9 27 30 18 16 9 16 21 10 348 338 335 340 345 344 336 344 340 317 301 285 265 247 239 247 250 244 231 238 225 220 241
172 153 135 112 101 106 97 106 106 82 46 15 2 13 12 6 360 355 349 358 335 330 329 318 332 346 337 336 336 317 302 290 277 271 248 247 242 252 250 224 226 234 211
159 122 121 131 130 112 117 140 162 142 84 53 352 349 350 344 347 325 324 329 329 332 326 328 328 328 319 316 325 316 300 288 286 272 265 263 255 253 255 244 247 239 213
153 147 155 167 165 171 172 171 173 189 199 163 233 292 296 300 293 287 289 296 300 311 318 316 315 320 315 309 309 292 293 294 284 276 268 261 255 257 257 254 254 245 243
177 182 181 177 178 174 167 169 198 133 123 215 252 267 269 275 268 267 273 267 270 278 282 280 279 291 297 300 300 299 294 286 279 276 271 265 254 256 254 244 249 252 240
194 204 195 194 193 196 213 217 224 225 228 285 303 302 285 269 265 266 271 271 266 280 278 290 288 286 281 282 288 283 282 282 284 278 266 262 259 256 252 250 245 236 241
184 201 196 205 214 217 222 229 236 243 233 272 286 301 308 312 312 312 313 307 301 294 289 294 294 295 287 289 292 292 283 281 278 275 273 264 253 256 256 257 254 244 232
215 193 193 225 243 231 216 215 15 13 8 321 316 317 313 309 307 307 310 310 310 309 302 297 295 289 286 289 293 294 291 285 277 273 271 268 261 253 250 255 255 254 248
208 226 215 228 147 132 89 82 39 15 355 329 312 301 301 305 315 314 311 306 303 298 295 292 291 290 288 291 294 296 291 286 280 276 273 266 266 256 250 250 248 246 243
229 225 211 147 104 91 78 72 44 0 336 311 309 335 342 323 315 307 303 302 301 298 296 292 292 290 288 292 294 297 296 287 282 278 273 271 269 263 259 254 246 247 246
224 212 142 119 108 79 68 65 11 336 306 335 331 324 317 309 303 302 301 299 295 291 294 292 292 292 291 296 296 295 284 280 279 278 274 270 265 264 260 255 249 245 244
199 122 110 118 113 93 60 25 350 302 325 328 315 308 306 303 296 294 296 295 292 290 290 288 290 290 290 294 296 296 289 282 278 274 275 271 271 272 268 259 248 245 250
150 134 127 119 104 84 76 330 291 326 318 313 306 301 294 288 293 290 291 289 288 287 288 289 289 286 288 289 293 297 296 292 289 286 285 281 279 277 269 263 256 252 248
156 125 126 119 84 94 124 259 296 309 307 290 283 285 287 286 285 288 289 292 287 286 289 289 290 288 282 278 282 286 288 287 283 280 282 285 285 289 282 275 259 252 246
162 137 107 91 244 197 303 248 293 300 285 272 293 295 296 298 292 293 295 293 290 289 287 285 282 279 277 272 269 264 262 264 268 268 271 267 271 273 279 263 258 242 238
143 123 136 203 230 188 260 269 295 279 305 301 298 297 294 295 300 293 291 285 284 284 285 286 289 294 292 289 288 293 290 283 269 257 250 255 263 272 275 285 243 243 236
131 113 235 249 271 281 273 274 272 271 293 300 301 303 298 303 300 296 293 292 297 300 299 300 300 296 296 300 299 296 294 290 285 273 270 272 264 263 267 272 272 246 243